Location: Harbor View
(36.2448°N, 86.5797°W)
Time: 02:15:23
(UTC+00:00)

COSMO-SKYMED 1 - Visible Passes

Search period start: 01 March 2021 00:00
Search period end: 11 March 2021 00:00
Orbit: 621 x 623 km, 97.9° (Epoch: 28 February)

Date Brightness Start Highest point End Pass type
(mag) Time Alt. Az. Time Alt. Az. Time Alt. Az.
01 Mar 5.6 01:00:38 10° NNW 01:03:09 15° WNW 01:05:41 10° WSW visible
01 Mar 4.9 10:16:02 10° ESE 10:19:31 24° ENE 10:23:01 10° NNE visible
01 Mar 3.6 11:51:58 10° SSW 11:55:33 25° W 11:59:09 10° NW visible
02 Mar 4.1 10:33:25 10° SE 10:37:26 38° ENE 10:41:27 10° N visible
03 Mar 3.1 10:51:06 10° SSE 10:55:23 62° ENE 10:59:41 10° N visible
04 Mar 3.9 00:17:17 10° N 00:21:24 43° WNW 00:25:31 10° SW visible
04 Mar 2.5 11:09:03 10° S 11:13:23 80° W 11:17:44 10° NNW visible
05 Mar 4.9 00:35:39 10° NNW 00:39:20 27° WNW 00:42:59 10° SW visible
05 Mar 5.8 09:53:35 10° E 09:55:42 14° ENE 09:57:50 10° NE visible
05 Mar 2.8 11:27:14 10° S 11:31:25 48° W 11:35:37 10° NNW visible
06 Mar 5.6 00:54:18 10° NNW 00:57:12 18° WNW 01:00:06 10° WSW visible
06 Mar 5.2 10:10:19 10° ESE 10:13:33 21° ENE 10:16:48 10° NNE visible
07 Mar 5.9 01:13:41 10° NW 01:15:02 11° WNW 01:16:22 10° W visible
07 Mar 4.4 10:27:35 10° SE 10:31:26 32° ENE 10:35:19 10° N visible
08 Mar 3.4 10:45:10 10° SSE 10:49:22 52° ENE 10:53:36 10° N visible
09 Mar 3.6 00:11:11 10° N 00:15:24 51° WNW 00:19:36 10° SSW visible
09 Mar 2.6 11:03:01 10° SSE 11:07:21 87° E 11:11:43 10° NNW visible
10 Mar 4.6 00:29:29 10° N 00:33:20 32° WNW 00:37:11 10° SW visible
10 Mar 5.9 09:48:17 10° E 09:49:45 12° ENE 09:51:13 10° NE visible
10 Mar 2.6 11:21:07 10° S 11:25:22 57° W 11:29:40 10° NNW visible
